Location: Boca do Mato
(22.9085°S, 43.2930°W)
Time: 22:30:00
(UTC+00:00)

Cosmos 1544 Rocket - Pass Details

Date: 14 July 2020
Orbit: 605 x 630 km, 82.5° (Epoch: 10 August)

Event Time Altitude Azimuth Distance (km) Brightness Sun altitude
Exits shadow 08:14:22 - 188° (S) 2,027 6.0 -18.0°
Reaches altitude 10° 08:14:30 10° 188° (S) 1,973 5.9 -18.0°
Maximum altitude 08:18:52 78° 274° (W) 627 3.4 -17.0°
Drops below altitude 10° 08:23:11 10° 0° (N) 1,955 6.3 -16.1°
Sets 08:25:23 0° 1° (N) 2,854 7.2 -15.6°
